WC1H Weather Reports


time (UTC)temp
C
wind
direction
speed
KPH
gust
KPH
rain 1hr
cm
rain 24hr
cm
rain mn
cm
humidity
%
barometer
mb
20260507101054 9 333 0.0 0.0 0.20 0.53 0.36 42 1006.8
20260507101050 9 333 0.0 0.0 0.23 0.53 0.36 43 1006.7
20260507100049 9 333 0.0 0.0 0.25 0.53 0.36 43 1006.4
20260507095549 9 326 0.0 0.0 0.23 0.51 0.33 43 1006.4
20260507095050 9 325 0.0 0.0 0.20 0.48 0.33 44 1006.5
20260507094550 10 86 0.0 3.2 0.20 0.48 0.30 44 1006.6
20260507094049 10 8 0.0 3.2 0.18 0.43 0.25 43 1006.4
20260507093551 10 60 0.0 0.0 0.18 0.43 0.25 44 1006.4
20260507093049 10 314 0.0 0.0 0.15 0.41 0.25 44 1006.3
20260507092549 10 78 0.0 0.0 0.15 0.41 0.23 45 1006.3
20260507092055 10 259 0.0 3.2 0.10 0.33 0.18 45 1006.4
20260507092051 10 35 0.0 0.0 0.15 0.38 0.20 45 1006.3
20260507091050 10 322 0.0 6.4 0.10 0.33 0.15 45 1006.4
20260507090550 10 333 0.0 6.4 0.08 0.30 0.13 44 1006.7
20260507090050 10 110 0.0 0.0 0.08 0.28 0.10 44 1006.6
20260507085550 10 11 0.0 0.0 0.08 0.28 0.10 44 1006.6
20260507085050 10 1 0.0 0.0 0.08 0.28 0.10 42 1006.7
20260507084549 11 307 0.0 0.0 0.08 0.28 0.10 42 1006.5
20260507084049 11 313 0.0 0.0 0.08 0.25 0.08 43 1006.2
20260507083549 11 326 0.0 1.6 0.08 0.25 0.08 44 1006.2
20260507083050 11 342 0.0 1.6 0.08 0.25 0.08 45 1006.2
20260507082553 11 41 0.0 0.0 0.05 0.23 0.05 47 1005.9
20260507082549 11 317 0.0 0.0 0.08 0.25 0.08 46 1006.2
20260507081550 11 288 0.0 4.8 0.05 0.23 0.05 49 1006.1
20260507081051 11 288 0.0 4.8 0.05 0.23 0.05 50 1006.5
20260507080545 11 123 0.0 6.4 0.05 0.23 0.05 52 1006.2
20260507080045 11 319 0.0 6.4 0.03 0.20 0.03 54 1006.0
20260507075545 11 141 0.0 4.8 0.03 0.20 0.03 55 1006.0
20260507075046 11 332 0.0 6.4 0.03 0.20 0.03 58 1006.1
20260507074543 12 4 0.0 6.4 0.03 0.20 0.03 60 1006.2
20260507074041 12 293 0.0 8.0 0.00 0.18 0.00 61 1006.2
20260507073538 12 310 0.0 8.0 0.00 0.18 0.00 62 1006.0
20260507073142 12 299 0.0 0.0 0.00 0.18 0.00 60 1005.4
20260507073043 12 310 0.0 0.0 0.00 0.18 0.00 60 1005.4
20260507073039 12 347 0.0 0.0 0.00 0.18 0.00 61 1005.5
20260507072746 12 326 0.0 0.0 0.00 0.18 0.00 59 1005.5
20260507071033 12 27 0.0 1.6 0.00 0.18 0.00 59 1005.6
20260507070533 12 335 0.0 1.6 0.00 0.18 0.00 60 1005.5
20260507070033 12 259 0.0 8.0 0.00 0.18 0.00 60 1005.3
20260507065531 12 330 0.0 8.0 0.00 0.18 0.00 60 1005.6
20260507065035 12 174 0.0 4.8 0.00 0.18 0.00 60 1005.6
20260507065031 12 2 0.0 1.6 0.00 0.18 0.00 59 1005.5
20260507064033 12 44 0.0 4.8 0.00 0.18 0.00 62 1005.4
20260507064029 12 226 0.0 4.8 0.00 0.18 0.00 61 1005.5
20260507063033 12 37 0.0 8.0 0.00 0.18 0.00 59 1005.4
20260507063029 12 84 0.0 8.0 0.00 0.18 0.00 61 1005.5
20260507062029 13 303 0.0 9.7 0.00 0.18 0.00 55 1005.0
20260507061528 13 323 0.0 9.7 0.00 0.18 0.00 49 1005.1
20260507061028 13 68 0.0 6.4 0.00 0.18 0.00 47 1005.3
20260507060527 13 318 0.0 8.0 0.00 0.18 0.00 46 1005.5
20260507060027 13 262 0.0 8.0 0.00 0.18 0.00 46 1005.4
20260507055529 13 302 0.0 4.8 0.00 0.18 0.00 45 1005.4
20260507055027 13 336 0.0 0.0 0.00 0.18 0.00 45 1005.5
20260507054527 13 300 0.0 0.0 0.00 0.18 0.00 45 1005.9
20260507054026 13 60 0.0 0.0 0.00 0.18 0.00 45 1005.8
20260507053526 13 112 0.0 0.0 0.00 0.18 0.00 46 1005.8
20260507053026 13 80 0.0 3.2 0.00 0.18 0.00 45 1005.7
20260507052529 13 142 0.0 6.4 0.00 0.18 0.00 44 1005.4
20260507052524 13 300 0.0 3.2 0.00 0.18 0.00 46 1005.4
20260507052130 14 142 0.0 8.0 0.00 0.18 0.00 42 1005.4
20260507051630 14 258 0.0 8.0 0.00 0.18 0.00 39 1005.5
20260507050526 14 300 0.0 0.0 0.00 0.18 0.00 33 1005.4
20260507050025 14 300 0.0 0.0 0.00 0.18 0.00 33 1005.5
20260507045529 14 312 0.0 8.0 0.00 0.18 0.00 32 1005.4
20260507045525 14 333 0.0 8.0 0.00 0.18 0.00 31 1005.4
20260507044523 15 258 0.0 4.8 0.03 0.18 0.00 30 1005.2
20260507044022 15 233 0.0 0.0 0.03 0.18 0.00 30 1005.3
20260507043524 15 269 0.0 0.0 0.03 0.18 0.00 30 1005.2
20260507043520 15 30 0.0 0.0 0.03 0.18 0.00 30 1005.2
20260507042519 15 219 0.0 0.0 0.03 0.18 0.00 30 1005.3
20260507042019 15 221 0.0 0.0 0.03 0.18 0.00 30 1005.3
20260507041523 15 221 0.0 0.0 0.03 0.18 0.00 30 1005.5
20260507041519 15 221 0.0 0.0 0.03 0.18 0.00 30 1005.4
20260507040523 15 341 0.0 0.0 0.03 0.18 0.00 30 1005.7
20260507040519 15 189 0.0 0.0 0.03 0.18 0.00 30 1005.6
20260507035519 15 254 0.0 0.0 0.03 0.18 0.18 30 1005.6
20260507035019 15 225 0.0 0.0 0.03 0.18 0.18 30 1005.6
20260507034519 15 336 0.0 0.0 0.00 0.15 0.15 31 1005.4
20260507034017 15 255 0.0 9.7 0.00 0.15 0.15 31 1005.3
20260507033517 15 257 0.0 9.7 0.00 0.15 0.15 32 1005.4
20260507033021 15 73 0.0 0.0 0.00 0.15 0.15 32 1005.1
20260507033017 15 138 0.0 0.0 0.00 0.15 0.15 32 1005.2
20260507032016 15 233 0.0 0.0 0.00 0.15 0.15 32 1005.0
20260507031515 15 295 0.0 8.0 0.00 0.15 0.15 32 1005.0
20260507031015 15 138 0.0 8.0 0.00 0.15 0.15 32 1005.0
20260507030513 15 248 0.0 3.2 0.00 0.15 0.15 32 1004.7
20260507030013 15 115 0.0 3.2 0.00 0.15 0.15 32 1004.8
20260507025513 15 109 0.0 8.0 0.00 0.15 0.15 32 1004.9
20260507025011 15 216 0.0 8.0 0.00 0.15 0.15 32 1005.0
20260507024515 15 285 0.0 0.0 0.00 0.15 0.15 31 1005.0
20260507024511 15 233 0.0 0.0 0.00 0.15 0.15 31 1005.0
20260507023511 15 116 0.0 0.0 0.00 0.15 0.15 31 1005.1
20260507023011 15 153 0.0 0.0 0.00 0.15 0.15 31 1005.1
20260507022511 15 226 0.0 0.0 0.00 0.15 0.15 31 1005.1
20260507022016 15 124 0.0 0.0 0.00 0.15 0.15 31 1005.1
20260507022011 15 115 0.0 0.0 0.00 0.15 0.15 31 1005.1
20260507021011 15 110 0.0 3.2 0.00 0.15 0.15 31 1005.0
20260507020510 14 130 0.0 8.0 0.00 0.15 0.15 31 1005.1
20260507020013 14 118 0.0 0.0 0.00 0.15 0.15 31 1005.1
20260507020009 14 209 0.0 8.0 0.00 0.15 0.15 31 1005.0
20260507015009 14 142 0.0 0.0 0.00 0.15 0.15 31 1005.2
20260507014510 14 267 0.0 0.0 0.00 0.15 0.15 31 1005.3
20260507014009 14 280 0.0 4.8 0.00 0.15 0.15 31 1005.2
20260507013509 14 264 0.0 4.8 0.00 0.15 0.15 31 1005.3
20260507013009 14 224 1.6 9.7 0.00 0.15 0.15 31 1005.2
20260507012508 14 222 1.6 9.7 0.00 0.15 0.15 31 1005.3
20260507012009 14 122 1.6 9.7 0.00 0.15 0.15 31 1005.4
20260507011508 14 122 0.0 9.7 0.00 0.15 0.15 31 1005.4
20260507011007 14 66 0.0 9.7 0.00 0.15 0.15 31 1005.5
20260507010506 14 301 0.0 3.2 0.00 0.15 0.15 31 1005.5
20260507010007 14 131 0.0 0.0 0.00 0.15 0.15 31 1005.5
20260507005507 14 115 0.0 0.0 0.03 0.15 0.15 31 1005.5
20260507005007 13 144 0.0 0.0 0.03 0.15 0.15 30 1005.4
20260507004508 13 217 0.0 12.9 0.03 0.15 0.15 30 1005.4
20260507004007 13 120 0.0 12.9 0.03 0.15 0.15 30 1005.5
20260507003506 13 124 0.0 6.4 0.03 0.15 0.15 30 1005.6
20260507003007 13 244 1.6 6.4 0.03 0.15 0.15 30 1005.5
20260507002507 13 51 0.0 6.4 0.05 0.15 0.15 30 1005.5
20260507002005 13 121 0.0 8.0 0.05 0.15 0.15 30 1005.4
20260507001504 13 172 0.0 8.0 0.05 0.15 0.15 30 1005.3
20260507001005 13 180 0.0 6.4 0.05 0.15 0.15 30 1005.2
20260507000505 13 109 0.0 6.4 0.05 0.15 0.15 30 1005.2
20260507000006 13 180 1.6 11.3 0.05 0.15 0.15 30 1005.3
20260506235506 13 113 1.6 11.3 0.03 0.13 0.13 30 1005.4
20260506235002 13 115 1.6 9.7 0.03 0.13 0.13 30 1005.4
20260506234503 13 235 1.6 16.1 0.03 0.13 0.13 30 1005.4
20260506234003 13 186 1.6 16.1 0.05 0.13 0.13 30 1005.3
20260506233504 13 139 1.6 11.3 0.05 0.13 0.13 30 1005.2
20260506233002 13 141 0.0 8.0 0.05 0.13 0.13 30 1005.2
20260506232501 13 266 0.0 0.0 0.03 0.10 0.10 30 1005.2
20260506232000 13 141 0.0 0.0 0.03 0.10 0.10 30 1005.3
20260506231501 13 111 0.0 0.0 0.03 0.10 0.10 30 1005.4
20260506230959 13 134 0.0 0.0 0.03 0.10 0.10 30 1005.5
20260506230502 14 113 0.0 9.7 0.03 0.10 0.10 30 1005.4
20260506230458 13 132 0.0 4.8 0.03 0.10 0.10 30 1005.3
20260506225459 14 102 1.6 9.7 0.03 0.10 0.10 30 1005.3
20260506224957 14 84 0.0 9.7 0.03 0.10 0.10 31 1005.6
20260506224454 14 125 1.6 11.3 0.05 0.10 0.10 31 1005.5
20260506223955 14 162 1.6 11.3 0.03 0.08 0.08 31 1005.6
20260506223455 14 284 0.0 9.7 0.03 0.08 0.08 31 1005.8
20260506222952 14 135 1.6 9.7 0.03 0.08 0.08 32 1005.8
20260506222458 15 167 0.0 9.7 0.03 0.08 0.08 32 1005.8
20260506222454 15 82 1.6 9.7 0.03 0.08 0.08 32 1005.8
20260506221450 15 146 0.0 8.0 0.03 0.08 0.08 32 1005.8
20260506220956 15 96 1.6 11.3 0.03 0.08 0.08 33 1006.0
20260506220952 15 138 0.0 11.3 0.03 0.08 0.08 32 1005.9
20260506215948 15 127 1.6 11.3 0.03 0.08 0.08 33 1006.0
20260506215449 15 121 1.6 11.3 0.03 0.08 0.08 35 1006.1
20260506214947 15 130 1.6 12.9 0.03 0.08 0.08 36 1006.1
20260506214446 15 141 1.6 12.9 0.00 0.05 0.05 37 1006.2
20260506213946 15 113 0.0 8.0 0.00 0.05 0.05 38 1006.2
20260506213445 15 128 0.0 8.0 0.00 0.05 0.05 38 1006.2
20260506212942 15 95 1.6 9.7 0.00 0.05 0.05 39 1006.2
20260506212443 15 124 0.0 9.7 0.00 0.05 0.05 39 1006.3
20260506211943 15 103 0.0 1.6 0.00 0.05 0.05 39 1006.2
20260506211444 16 143 0.0 6.4 0.00 0.05 0.05 41 1006.3
20260506211440 15 150 0.0 1.6 0.00 0.05 0.05 40 1006.3
20260506210439 16 224 0.0 6.4 0.03 0.05 0.05 42 1006.2
20260506205942 16 32 0.0 6.4 0.03 0.05 0.05 43 1006.3
20260506205938 16 263 0.0 4.8 0.03 0.05 0.05 45 1006.4
20260506204937 16 248 0.0 3.2 0.03 0.05 0.05 47 1006.5
20260506204437 16 208 0.0 0.0 0.03 0.05 0.05 49 1006.4
20260506203936 16 115 0.0 4.8 0.05 0.05 0.05 52 1006.4
20260506203436 16 139 0.0 8.0 0.05 0.05 0.05 53 1006.5
20260506202937 16 132 0.0 8.0 0.05 0.05 0.05 54 1006.5
20260506202436 16 255 0.0 8.0 0.05 0.05 0.05 55 1006.3
20260506201936 16 101 0.0 1.6 0.05 0.05 0.05 55 1006.3
20260506201436 16 134 0.0 0.0 0.05 0.05 0.05 55 1006.1
20260506200937 16 135 0.0 0.0 0.05 0.05 0.05 55 1006.1
20260506200436 16 135 0.0 3.2 0.03 0.03 0.03 55 1006.2
20260506195937 16 153 0.0 3.2 0.03 0.03 0.03 56 1006.2
20260506195436 16 337 0.0 3.2 0.03 0.03 0.03 58 1006.4
20260506194937 16 141 0.0 3.2 0.03 0.03 0.03 59 1006.5
20260506194436 17 139 0.0 3.2 0.03 0.03 0.03 60 1006.6
20260506193936 17 121 0.0 3.2 0.00 0.00 0.00 61 1006.5
20260506193436 17 133 0.0 0.0 0.00 0.00 0.00 62 1006.6
20260506192938 17 159 0.0 0.0 0.00 0.00 0.00 63 1006.7
20260506192436 17 129 0.0 1.6 0.00 0.00 0.00 64 1006.6
20260506191938 17 134 0.0 4.8 0.00 0.00 0.00 65 1006.5
20260506191435 18 133 0.0 4.8 0.00 0.00 0.00 65 1006.4
20260506190934 18 115 0.0 8.0 0.00 0.00 0.00 65 1006.4
20260506190435 18 133 0.0 9.7 0.00 0.00 0.00 65 1006.4
20260506185936 18 122 0.0 4.8 0.00 0.00 0.00 65 1006.5
20260506185932 18 148 0.0 9.7 0.00 0.00 0.00 65 1006.4
20260506184933 18 174 0.0 1.6 0.00 0.00 0.00 65 1006.5
20260506184430 18 191 0.0 0.0 0.00 0.00 0.00 65 1006.5
20260506183932 18 138 0.0 1.6 0.00 0.00 0.00 65 1006.5
20260506183426 18 171 0.0 1.6 0.00 0.00 0.00 65 1006.5
20260506182926 18 135 0.0 6.4 0.00 0.00 0.00 65 1006.6
20260506182426 18 159 0.0 6.4 0.00 0.00 0.00 65 1006.5
20260506181928 18 120 0.0 9.7 0.00 0.00 0.00 65 1006.6
20260506181428 19 148 0.0 9.7 0.00 0.00 0.00 64 1006.6
20260506181424 19 147 0.0 9.7 0.00 0.00 0.00 64 1006.8
20260506180428 19 61 0.0 0.0 0.00 0.00 0.00 65 1006.9
20260506180424 19 129 0.0 3.2 0.00 0.00 0.00 64 1006.9
20260506175424 19 107 0.0 0.0 0.00 0.00 0.00 65 1007.0
20260506174923 19 100 0.0 3.2 0.00 0.00 0.00 64 1007.1
20260506174422 19 131 0.0 3.2 0.00 0.00 0.00 64 1007.1
20260506173921 19 141 0.0 0.0 0.00 0.00 0.00 64 1007.2
20260506173420 19 134 0.0 1.6 0.00 0.00 0.00 64 1007.2
20260506172920 19 88 0.0 6.4 0.00 0.00 0.00 64 1007.3
20260506172419 19 96 0.0 6.4 0.00 0.00 0.00 65 1007.3
20260506171922 19 121 0.0 0.0 0.00 0.00 0.00 65 1007.2
20260506171918 19 121 0.0 6.4 0.00 0.00 0.00 65 1007.3
20260506170918 19 146 0.0 0.0 0.00 0.00 0.00 65 1007.3
20260506170418 19 148 0.0 0.0 0.00 0.00 0.00 65 1007.4
20260506165919 19 126 0.0 0.0 0.00 0.00 0.00 64 1007.5
20260506165418 19 101 0.0 3.2 0.00 0.00 0.00 65 1007.6
20260506164918 19 133 0.0 3.2 0.00 0.00 0.00 65 1007.5
20260506164420 19 98 0.0 1.6 0.00 0.00 0.00 65 1007.6
20260506164416 19 122 0.0 0.0 0.00 0.00 0.00 64 1007.6
20260506163416 20 129 0.0 0.0 0.00 0.00 0.00 64 1007.7
20260506162916 20 132 0.0 1.6 0.00 0.00 0.00 64 1007.8
20260506162421 20 124 0.0 3.2 0.00 0.00 0.00 64 1008.0
20260506162417 20 136 0.0 1.6 0.00 0.00 0.00 64 1007.8
20260506161414 20 253 0.0 3.2 0.00 0.00 0.00 64 1008.0
20260506160914 20 90 0.0 1.6 0.00 0.00 0.00 64 1008.1
20260506160415 20 138 0.0 1.6 0.00 0.00 0.00 64 1008.3
20260506155916 20 166 0.0 0.0 0.00 0.00 0.00 63 1008.2
20260506155415 20 221 0.0 4.8 0.00 0.00 0.00 63 1008.4
20260506154915 20 90 0.0 4.8 0.00 0.00 0.00 63 1008.3
20260506154414 20 201 0.0 3.2 0.00 0.00 0.00 63 1008.4
20260506153913 20 164 0.0 6.4 0.00 0.00 0.00 63 1008.6
20260506153412 20 157 0.0 6.4 0.00 0.00 0.00 63 1008.6
20260506152916 20 105 0.0 1.6 0.00 0.00 0.00 62 1008.7
20260506152912 20 136 0.0 0.0 0.00 0.00 0.00 63 1008.6
20260506151912 20 134 0.0 11.3 0.00 0.00 0.00 63 1008.8
20260506151412 20 141 0.0 11.3 0.00 0.00 0.00 63 1008.7
20260506150912 20 194 0.0 1.6 0.00 0.00 0.00 64 1008.9
20260506150416 20 130 0.0 0.0 0.00 0.00 0.00 64 1008.9
20260506150412 20 77 0.0 1.6 0.00 0.00 0.00 64 1008.9
20260506145414 20 175 0.0 6.4 0.00 0.00 0.00 64 1008.9
20260506144916 20 144 0.0 6.4 0.00 0.00 0.00 64 1008.8
20260506144912 19 125 0.0 9.7 0.00 0.00 0.00 65 1008.8
20260506144513 19 127 0.0 9.7 0.00 0.00 0.00 65 1008.8
20260506143410 19 140 0.0 4.8 0.00 0.00 0.00 65 1008.7
20260506142910 19 105 0.0 0.0 0.00 0.00 0.00 65 1008.6
20260506142410 19 137 0.0 0.0 0.00 0.00 0.00 65 1008.7
20260506141910 18 148 0.0 0.0 0.00 0.00 0.00 66 1008.7
20260506141409 18 107 0.0 0.0 0.00 0.00 0.00 66 1008.9
20260506140910 18 92 0.0 0.0 0.00 0.00 0.00 66 1008.8
20260506140410 18 142 0.0 0.0 0.00 0.00 0.00 65 1008.9
20260506140014 17 136 0.0 0.0 0.00 0.00 0.00 65 1009.0
20260506135913 17 264 0.0 0.0 0.00 0.00 0.00 65 1008.8
20260506135909 18 321 0.0 0.0 0.00 0.00 0.00 65 1008.8
20260506135014 17 140 0.0 0.0 0.00 0.00 0.00 65 1009.2
20260506133905 17 129 0.0 0.0 0.00 0.00 0.00 65 1009.4
20260506133406 17 203 0.0 1.6 0.00 0.00 0.00 65 1009.4
20260506133010 17 178 0.0 8.0 0.00 0.00 0.00 65 1009.2
20260506132908 17 113 0.0 8.0 0.00 0.00 0.00 65 1009.4
20260506132904 17 135 0.0 1.6 0.00 0.00 0.00 65 1009.4
20260506131403 17 134 0.0 4.8 0.00 0.00 0.00 65 1009.2
20260506130903 17 71 0.0 1.6 0.00 0.00 0.00 64 1009.2
20260506130404 17 131 0.0 1.6 0.00 0.00 0.00 65 1009.3
20260506125903 17 161 0.0 0.0 0.00 0.00 0.00 64 1009.3
20260506125408 17 196 0.0 9.7 0.00 0.00 0.00 63 1009.4
20260506125404 17 139 0.0 9.7 0.00 0.00 0.00 64 1009.3
20260506124405 17 110 0.0 4.8 0.00 0.00 0.00 62 1009.6
20260506123904 16 212 0.0 4.8 0.00 0.00 0.00 60 1009.6
20260506123404 16 206 0.0 4.8 0.00 0.00 0.00 61 1009.5
20260506122903 16 160 0.0 4.8 0.00 0.00 0.00 61 1009.4
20260506122403 16 278 0.0 6.4 0.00 0.00 0.00 59 1009.1
20260506121902 16 113 0.0 9.7 0.00 0.00 0.00 58 1009.3
20260506121407 16 222 0.0 8.0 0.00 0.00 0.00 56 1009.5
20260506121403 16 89 0.0 9.7 0.00 0.00 0.00 57 1009.2
20260506120403 15 150 0.0 9.7 0.00 0.00 0.00 55 1009.7
20260506115901 15 144 0.0 9.7 0.00 0.00 0.00 55 1009.6
20260506115359 15 210 0.0 1.6 0.00 0.00 0.00 55 1009.6
20260506114904 15 151 0.0 9.7 0.00 0.00 0.00 54 1009.9
20260506114900 15 143 0.0 1.6 0.00 0.00 0.00 55 1009.7
20260506113859 15 143 0.0 9.7 0.00 0.00 0.00 53 1009.9
20260506113359 15 178 0.0 6.4 0.00 0.00 0.00 52 1009.8
20260506112900 15 145 0.0 6.4 0.00 0.00 0.00 53 1009.6
20260506112400 15 98 1.6 6.4 0.00 0.00 0.00 53 1009.8
20260506111857 15 141 1.6 11.3 0.00 0.00 0.00 53 1009.8
20260506111357 15 143 1.6 11.3 0.00 0.00 0.00 52 1009.7
20260506110902 15 143 0.0 11.3 0.00 0.00 0.00 50 1009.7
20260506110858 15 137 0.0 0.0 0.00 0.00 0.00 50 1009.6
20260506105859 15 118 1.6 11.3 0.00 0.00 0.00 50 1009.7
20260506105358 15 143 1.6 9.7 0.00 0.00 0.00 51 1009.7
20260506104857 15 130 0.0 8.0 0.00 0.00 0.00 51 1009.7
20260506104355 15 233 0.0 6.4 0.00 0.00 0.00 51 1009.7
20260506103856 15 148 1.6 8.0 0.00 0.00 0.00 52 1009.9
20260506103358 15 148 0.0 6.4 0.00 0.00 0.00 52 1009.7
20260506103354 15 79 0.0 8.0 0.00 0.00 0.00 52 1009.8
20260506102353 15 83 0.0 4.8 0.00 0.00 0.00 53 1009.8
20260506101854 15 100 0.0 4.8 0.00 0.00 0.00 53 1009.6